Roenne, Denmark

12:37 AM CEST on March 30, 2017 (GMT +0200)
Ronne

Weather History for EKRN - November, 2012

Change the Weather History Date:

Tuesday, November 20, 2012

  Actual Average Record
Temperature  
Mean Temperature 43 °F -  
Max Temperature 44 °F 41 °F 50 °F (2008)
Min Temperature 42 °F 34 °F 28 °F (1998)
Degree Days  
Heating Degree Days 22    
Moisture  
Dew Point 43 °F    
Average Humidity 95    
Maximum Humidity 100    
Minimum Humidity 93    
Precipitation  
Precipitation 0.00 in - - ()
Sea Level Pressure  
Sea Level Pressure 30.16 in    
Wind  
Wind Speed 12 mph ()    
Max Wind Speed 20 mph    
Max Gust Speed -    
Visibility 2.9 miles    
Events      
Averages and records for this station are not official NWS values.
T = Trace of Precipitation, MM = Missing Value Source: Averaged Metar Reports

Daily Weather History Graph

Daily Weather History Graph

Search for Another Location

Airport or City:

Trip Planner

Search our weather history database for the weather conditions in past years. The results will help you decide how hot, cold, wet, or windy it might be!

Date:

Astronomy

Nov. 20, 2012 Rise Set
Actual Time 7:43 AM CET 3:49 PM CET
Civil Twilight 7:01 AM CET 4:31 PM CET
Nautical Twilight 6:16 AM CET 5:16 PM CET
Astronomical Twilight 5:33 AM CET 5:59 PM CET
Moon 12:36 PM CET (11/20) 11:40 PM CET (11/20)
Length of Visible Light 9h 29m
Length of Day
8h 05m
Waxing Crescent, 48% of the Moon is Illuminated
Nov 20
Waxing Crescent
Nov 20
First Quarter
Nov 28
Full
Dec 6
Last Quarter
Dec 13
New

Hourly Weather History & Observations

Time (CET) Temp. Windchill Dew Point Humidity Pressure Visibility Wind Dir Wind Speed Gust Speed Precip Events Conditions
12:20 AM 44.6 °F 37.8 °F 42.8 °F 93% 30.15 in 5.0 mi South 15.0 mph - N/A   Mostly Cloudy
12:50 AM 44.6 °F 37.8 °F 44.6 °F 100% 30.15 in 4.3 mi South 15.0 mph - N/A   Mostly Cloudy
1:20 AM 44.6 °F 37.2 °F 44.6 °F 100% 30.12 in 3.7 mi South 17.3 mph - N/A   Mostly Cloudy
1:50 AM 44.6 °F 36.6 °F 44.6 °F 100% 30.12 in 3.1 mi South 19.6 mph - N/A   Mostly Cloudy
2:20 AM 44.6 °F 36.9 °F 42.8 °F 93% 30.12 in 3.1 mi South 18.4 mph - N/A   Mostly Cloudy
2:50 AM 44.6 °F 36.9 °F 42.8 °F 93% 30.12 in 3.1 mi SSW 18.4 mph - N/A   Overcast
3:20 AM 44.6 °F 37.2 °F 42.8 °F 93% 30.12 in 3.1 mi SSW 17.3 mph - N/A   Overcast
3:50 AM 44.6 °F 37.8 °F 42.8 °F 93% 30.12 in 3.1 mi SSW 15.0 mph - N/A   Overcast
4:20 AM 44.6 °F 37.4 °F 42.8 °F 93% 30.12 in - SSW 16.1 mph - N/A   Overcast
4:50 AM 44.6 °F 37.8 °F 42.8 °F 93% 30.12 in - South 15.0 mph - N/A   Overcast
5:20 AM 44.6 °F 38.8 °F 42.8 °F 93% 30.12 in 3.1 mi South 11.5 mph - N/A   Overcast
5:50 AM 44.6 °F 38.8 °F 42.8 °F 93% 30.12 in - SSW 11.5 mph - N/A   Overcast
6:20 AM 44.6 °F 39.2 °F 42.8 °F 93% 30.12 in 3.1 mi SSW 10.4 mph - N/A   Overcast
6:50 AM 44.6 °F 38.8 °F 42.8 °F 93% 30.12 in 3.1 mi South 11.5 mph - N/A   Overcast
7:20 AM 44.6 °F 38.4 °F 42.8 °F 93% 30.15 in - South 12.7 mph - N/A   Overcast
7:50 AM 44.6 °F 38.8 °F 42.8 °F 93% 30.15 in - South 11.5 mph - N/A   Mostly Cloudy
8:20 AM 44.6 °F 38.8 °F 42.8 °F 93% 30.15 in - South 11.5 mph - N/A   Overcast
8:50 AM 44.6 °F 38.8 °F 42.8 °F 93% 30.15 in - South 11.5 mph - N/A   Overcast
9:20 AM 44.6 °F 39.2 °F 42.8 °F 93% 30.15 in - South 10.4 mph - N/A   Overcast
9:50 AM 44.6 °F 39.2 °F 42.8 °F 93% 30.15 in 2.8 mi South 10.4 mph - N/A   Overcast
10:20 AM 44.6 °F 38.8 °F 42.8 °F 93% 30.15 in 2.8 mi SSE 11.5 mph - N/A   Overcast
10:50 AM 44.6 °F 38.4 °F 42.8 °F 93% 30.15 in - South 12.7 mph - N/A   Overcast
11:20 AM 42.8 °F 36.2 °F 42.8 °F 100% 30.15 in - South 12.7 mph - N/A   Mostly Cloudy
11:50 AM 42.8 °F 36.6 °F 42.8 °F 100% 30.15 in - South 11.5 mph - N/A   Mostly Cloudy
12:20 PM 42.8 °F 36.2 °F 42.8 °F 100% 30.15 in 1.7 mi South 12.7 mph - N/A   Overcast
12:50 PM 44.6 °F 38.4 °F 42.8 °F 93% 30.15 in 1.9 mi South 12.7 mph - N/A   Overcast
1:20 PM 44.6 °F 38.4 °F 42.8 °F 93% 30.15 in - South 12.7 mph - N/A   Overcast
1:50 PM 42.8 °F 36.2 °F 42.8 °F 100% 30.15 in 1.9 mi South 12.7 mph - N/A   Overcast
2:20 PM 42.8 °F 37.0 °F 42.8 °F 100% 30.18 in 1.9 mi SSW 10.4 mph - N/A   Overcast
2:50 PM 42.8 °F 36.6 °F 42.8 °F 100% 30.18 in - SSW 11.5 mph - N/A   Overcast
3:20 PM 44.6 °F 39.7 °F 42.8 °F 93% 30.18 in - South 9.2 mph - N/A   Overcast
3:50 PM 44.6 °F 41.4 °F 42.8 °F 93% 30.18 in - South 5.8 mph - N/A   Mostly Cloudy
4:20 PM 44.6 °F 39.7 °F 44.6 °F 100% 30.18 in - South 9.2 mph - N/A   Mostly Cloudy
4:50 PM 44.6 °F 40.2 °F 42.8 °F 93% 30.18 in 1.8 mi South 8.1 mph - N/A   Mostly Cloudy
5:20 PM 44.6 °F 40.2 °F 44.6 °F 100% 30.18 in 1.4 mi SSE 8.1 mph - N/A   Mostly Cloudy
5:50 PM 44.6 °F 41.4 °F 42.8 °F 93% 30.18 in 1.3 mi SSE 5.8 mph - N/A   Scattered Clouds
6:20 PM 44.6 °F 40.7 °F 44.6 °F 100% 30.18 in 1.6 mi SSE 6.9 mph - N/A   Mist
6:50 PM 44.6 °F 40.2 °F 44.6 °F 100% 30.18 in - South 8.1 mph - N/A   Partly Cloudy
7:20 PM 44.6 °F 39.7 °F 42.8 °F 93% 30.18 in - SSE 9.2 mph - N/A   Partly Cloudy
7:50 PM 44.6 °F 40.2 °F 42.8 °F 93% 30.18 in 2.5 mi SSE 8.1 mph - N/A   Mist
8:20 PM 44.6 °F 40.2 °F 42.8 °F 93% 30.18 in - SSE 8.1 mph - N/A   Mist
8:50 PM 44.6 °F 40.2 °F 42.8 °F 93% 30.18 in - SSE 8.1 mph - N/A   Mist
9:20 PM 44.6 °F 40.7 °F 42.8 °F 93% 30.18 in 3.1 mi SSE 6.9 mph - N/A   Unknown
9:50 PM 44.6 °F 40.2 °F 42.8 °F 93% 30.21 in 3.1 mi SSE 8.1 mph - N/A   Unknown
10:20 PM 44.6 °F 40.7 °F 42.8 °F 93% 30.21 in 3.7 mi SSE 6.9 mph - N/A   Unknown
10:50 PM 44.6 °F 38.8 °F 42.8 °F 93% 30.21 in 3.7 mi SSE 11.5 mph - N/A   Unknown
11:20 PM 44.6 °F 39.7 °F 42.8 °F 93% 30.21 in 3.7 mi SSE 9.2 mph - N/A   Unknown
11:50 PM 44.6 °F 39.7 °F 42.8 °F 93% 30.21 in 3.1 mi SSE 9.2 mph - N/A   Unknown